Regional Weather Roundup
Issued by NWS

Home | Current Version | Previous Version | Graphics & Text | Print | Product List | Glossary On
Versions: 1 2 3 4 5 6 7 8 9 10 11 12 13 14 15 16 17 18 19 20 21 22 23 24 25 26 27 28 29 30 31 32 33 34 35 36 37 38 39 40 41 42 43 44 45 46 47 48 49 50
000
ASUS43 KMKX 010421
RWRWI

WISCONSIN REGIONAL WEATHER ROUNDUP
NATIONAL WEATHER SERVICE MILWAUKEE/SULLIVAN WI
1100 PM CDT TUE SEP 30 2014

NOTE: "FAIR" INDICATES FEW OR NO CLOUDS BELOW 12,000 FEET WITH NO
SIGNIFICANT WEATHER AND/OR OBSTRUCTIONS TO VISIBILITY.

WIZ001-002-006>008-014>016-023>028-010500-
NORTHWEST WISCONSIN

CITY           SKY/WX    TMP DP  RH WIND       PRES   REMARKS
SUPERIOR ARPT  MOCLDY    46  44  93 E10       29.95F
ASHLAND        MOCLDY    42  41  96 SE3       29.98F FOG
HAYWARD        MOCLDY    49  43  80 SE7       29.95F
SIREN          CLOUDY    51  43  73 SE10G18   29.90F
CUMBERLAND     PTCLDY    46  41  81 SE8       29.95S
RICE LAKE      PTCLDY    47  42  82 SE12      29.98R
CHETEK         PTCLDY    46  43  88 SE10G16   29.97S
LADYSMITH      PTCLDY    46  42  88 SE6       29.99F
EAU CLAIRE     CLOUDY    47  41  80 SE9       29.98R
MENOMONIE      MOCLDY    47  43  85 SE7       29.99R
NEW RICHMOND   CLOUDY    49  43  78 SE13G18   29.91F
OSCEOLA        CLOUDY    51  44  77 SE13G23   29.92F
$$

WIZ003>005-009-010-017-018-010500-
NORTH CENTRAL WISCONSIN

CITY           SKY/WX    TMP DP  RH WIND       PRES   REMARKS
MANITOWISH WTR CLEAR     44  44  99 S5        30.00F
ARBOR VITAE    CLEAR     46  43  90 S7        30.01S
WOODRUFF       CLEAR     46  43  90 S7        30.01S
RHINELANDER    CLOUDY    43  41  93 SE8       30.04R
EAGLE RIVER    PTCLDY    44  43  97 SE8       30.02S
LAND O LAKES   CLEAR     45  43  93 SE7       30.02F
PHILLIPS       CLOUDY    45  42  91 SE7       29.99F
TOMAHAWK       CLOUDY    43  41  91 SE5       30.03F
MEDFORD        CLOUDY    43  41  93 SE9       30.01F
MERRILL        CLOUDY    44  43  95 S8        30.04S
$$

WIZ029-030-035-036-043>047-010500-
CENTRAL WISCONSIN

CITY           SKY/WX    TMP DP  RH WIND       PRES   REMARKS
WAUSAU         CLOUDY    45  42  89 SE9       30.03F
MOSINEE        CLOUDY    43  43 100 SE10      30.05S
MARSHFIELD     CLOUDY    46  42  86 SE10G18   30.02F
STEVENS POINT  CLOUDY    44  42  93 SE9       30.05F FOG
WAUPACA        CLOUDY    49  46  88 E7        30.06F
WAUTOMA        NOT AVBL
WISC RAPIDS    CLOUDY    47  43  86 SE7       30.06S
CAMP DOUGLAS   PTCLDY    39  39 100 E6        30.02F
$$

WIZ011>013-019>022-031-037>040-048>050-010500-
NORTHEAST WISCONSIN

CITY           SKY/WX    TMP DP  RH WIND       PRES   REMARKS
ANTIGO         CLOUDY    43  42  97 SE9       30.06R
SHAWANO        CLOUDY    49  45  84 S6        30.08S
OCONTO         CLOUDY    48  47  94 CALM      30.07F
STURGEON BAY   NOT AVBL
GREEN BAY      CLOUDY    48  45  89 CALM      30.07S
MANITOWOC      NOT AVBL
APPLETON       CLOUDY    46  43  87 VRB6      30.07S
CLINTONVILLE   CLOUDY    46  43  87 SE5       30.07S
OSHKOSH        CLOUDY    48  45  89 E7        30.06F
$$

WIZ032>034-041-042-053>061-010500-
SOUTHWEST WISCONSIN

CITY           SKY/WX    TMP DP  RH WIND       PRES   REMARKS
LA CROSSE      CLOUDY    50  43  77 SE9       29.98F
SPARTA         MOCLDY    46  41  83 SE5       30.02S
VIROQUA        CLOUDY    44  44 100 E7        29.99F
BOSCOBEL       PTCLDY    47  43  86 CALM      30.01F
PRAIRIE DU CHI MOCLDY    48  42  80 E6        29.98F
PLATTEVILLE    PTCLDY    46  43  89 E10       30.01R
$$

WIZ056-057-062-063-064-067-068-010500-
SOUTH CENTRAL WISCONSIN

CITY           SKY/WX    TMP DP  RH WIND       PRES   REMARKS
REEDSBURG      PTCLDY    42  41  97 CALM      30.02F
BARABOO/DELLS  PTCLDY    42  40  93 E3        30.03S
LONE ROCK      PTCLDY    47  41  80 SE6       30.02F
MINERAL POINT  PTCLDY    46  43  87 E8        30.00S
MADISON        CLOUDY    49  44  83 E9        30.03F
MIDDLETON      CLOUDY    50  47  88 E10       30.02F
WATERTOWN      CLOUDY    47  46  95 NE5       30.05S
MONROE         CLOUDY    45  43  93 E3        30.02S
JANESVILLE     CLOUDY    52  45  76 E7        30.01F
$$

WIZ051-052-058>065-066-070>072-010500-
SOUTHEAST WISCONSIN

CITY           SKY/WX    TMP DP  RH WIND       PRES   REMARKS
MILWAUKEE      MOCLDY    51  49  92 NW6       30.04F
WAUKESHA       DRIZZLE   45  45 100 CALM      30.06S
MILWAUKEE/TIMM CLOUDY    46  45  93 CALM      30.06S
RACINE         CLOUDY    54  47  77 NE3       30.05F
BURLINGTON     CLOUDY    47  47  99 N3        30.04F FOG
KENOSHA        CLOUDY    52  50  93 N3        30.04F
FOND DU LAC    CLOUDY    48  44  86 CALM      30.06F
SHEBOYGAN      NOT AVBL
WEST BEND      DRIZZLE   46  45  93 N3        30.05F
JUNEAU         CLOUDY    47  43  88 NE7       30.07S
$$

LSZ147-162-010500-
LAKE SUPERIOR

STATION/POSITION TIME  TEMP    WIND        PRES    WAVE
                       AIR SEA DIR/SP/G            HT/PER
                 (UTC) (F)     (DEG/KT/KT) (MB)    (FT/S)
W MID LAKE BUOY  0350   47 50  110/ 14/ 16 1016.4F   3/ 4
DEVILS ISLAND    0400   50      90/ 11/ 12 1015.8F
SAXON HARBOR     0300   40     180/  5/  7 1015.6S
$$

LMZ867-665-643>646-010500-
LAKE MICHIGAN

STATION/POSITION TIME  TEMP    WIND        PRES    WAVE
                       AIR SEA DIR/SP/G            HT/PER
                 (UTC) (F)     (DEG/KT/KT) (MB)    (FT/S)
CHAMBERS ISLAND  0300   52     120/  3/  7 1018.3R
S GREEN BAY BUOY 0400   50                 1019.0F
N MID LAKE BUOY  0350   54 58  110/ 14/ 16 1018.0R   2/ 3
NORTHPORT PIER   0300   53     100/  3/  5 1017.9S
KEWAUNEE LAKESHO 0400   49     300/  4/  6 1016.9F
SHEBOYGAN LAKESH 0400   50 54  350/  8/  9 1018.1F
PORT WASHINGTON  0300   50     350/  4/  8 1018.3S
ATWATER BUOY     0400   55     110/  6/  8 1018.5R
MILWAUKEE LAKESH 0400   54      90/  7/  9   N/A
S MID LAKE BUOY  0350   56 61   50/  8/ 10 1017.3F   2/ 6
KENOSHA   LAKESH 0400   56     110/  5/  7 1016.9F
$$

TC  - TEMPERATURE IN CELSIUS
VSB - VISIBILITY IN STATUTE MILES
WCI - WIND CHILL INDEX
HX  - HEAT INDEX




USA.gov is the U.S. government's official web portal to all federal, state and local government web resources and services.